Location: Ch�teau-Arnoux
(44.0814°N, 6.0027°E)
Time: 04:38:40
(UTC+00:00)

STARLINK-21 - Pass Details

Date: 15 November 2019
Orbit: 529 x 531 km, 53.0° (Epoch: 08 December)

Event Time Altitude Azimuth Distance (km) Brightness Sun altitude
Rises 04:22:11 0° 186° (S) 2,649 7.1 -23.0°
Reaches altitude 10° 04:25:12 10° 162° (SSE) 1,766 6.5 -22.5°
Drops below altitude 10° 04:29:40 10° 94° (E) 1,780 7.4 -21.7°
Enters shadow 05:32:55 -60° 233° (SW) 11,742 10.3 -10.5°
Maximum altitude 06:06:56 89° 156° (SSE) 538 3.6 -4.7°
